TimePDT,TemperatureF,Dew PointF,Humidity,Sea Level PressureIn,VisibilityMPH,Wind Direction,Wind SpeedMPH,Gust SpeedMPH,PrecipitationIn,Events,Conditions,WindDirDegrees,DateUTC
12:56 AM,30.9,28.0,89,30.26,9.0,Calm,Calm,-,N/A,,Overcast,0,2013-04-10 07:56:00
1:56 AM,33.1,30.0,89,30.23,10.0,Calm,Calm,-,N/A,,Overcast,0,2013-04-10 08:56:00
2:56 AM,30.9,28.9,92,30.22,10.0,Calm,Calm,-,N/A,,Clear,0,2013-04-10 09:56:00
3:56 AM,32.0,30.0,92,30.21,10.0,Calm,Calm,-,N/A,,Overcast,0,2013-04-10 10:56:00
4:56 AM,33.1,30.9,92,30.19,10.0,Calm,Calm,-,N/A,,Mostly Cloudy,0,2013-04-10 11:56:00
5:56 AM,34.0,32.0,92,30.18,10.0,Calm,Calm,-,N/A,,Overcast,0,2013-04-10 12:56:00
6:40 AM,35.6,33.8,93,30.14,10.0,Calm,Calm,-,N/A,,Overcast,0,2013-04-10 13:40:00
6:56 AM,35.1,33.1,92,30.18,10.0,Calm,Calm,-,N/A,,Overcast,0,2013-04-10 13:56:00
7:03 AM,35.6,33.8,93,30.14,10.0,Calm,Calm,-,N/A,,Overcast,0,2013-04-10 14:03:00
7:24 AM,37.4,33.8,87,30.14,10.0,Calm,Calm,-,N/A,,Overcast,0,2013-04-10 14:24:00
7:56 AM,37.9,35.1,89,30.18,10.0,Calm,Calm,-,N/A,,Overcast,0,2013-04-10 14:56:00
8:20 AM,39.2,35.6,87,30.12,10.0,Calm,Calm,-,N/A,,Overcast,0,2013-04-10 15:20:00
8:28 AM,39.2,35.6,87,30.12,10.0,Calm,Calm,-,N/A,,Overcast,0,2013-04-10 15:28:00
8:36 AM,39.2,37.4,93,30.11,10.0,Calm,Calm,-,N/A,,Overcast,0,2013-04-10 15:36:00
8:56 AM,42.1,37.0,82,30.16,10.0,Calm,Calm,-,N/A,,Overcast,0,2013-04-10 15:56:00
9:20 AM,46.4,37.4,71,30.09,10.0,Calm,Calm,-,N/A,,Mostly Cloudy,0,2013-04-10 16:20:00
9:56 AM,51.1,39.9,66,30.10,10.0,Calm,Calm,-,N/A,,Overcast,0,2013-04-10 16:56:00
10:56 AM,54.0,39.9,59,30.08,10.0,Variable,3.5,-,N/A,,Scattered Clouds,0,2013-04-10 17:56:00
11:56 AM,55.9,39.9,55,30.05,10.0,Variable,4.6,-,N/A,,Mostly Cloudy,0,2013-04-10 18:56:00
12:56 PM,55.9,39.9,55,30.03,10.0,Variable,5.8,-,N/A,,Overcast,0,2013-04-10 19:56:00
1:32 PM,48.2,44.6,87,30.04,2.5,West,9.2,26.5,0.02,Rain,Rain,270,2013-04-10 20:32:00
1:47 PM,46.4,44.6,93,30.04,2.0,Variable,4.6,18.4,0.06,Rain,Rain,0,2013-04-10 20:47:00
1:56 PM,48.0,45.0,89,30.07,2.5,Variable,4.6,-,0.09,Rain,Light Rain,0,2013-04-10 20:56:00
2:04 PM,46.4,44.6,93,30.03,3.0,Variable,3.5,-,0.00,Rain,Light Rain,0,2013-04-10 21:04:00
2:12 PM,46.4,44.6,93,30.03,1.8,Variable,5.8,-,0.03,Rain,Rain,0,2013-04-10 21:12:00
2:34 PM,46.4,44.6,93,30.02,0.5,Variable,4.6,-,0.17,Fog-Rain,Heavy Rain,0,2013-04-10 21:34:00
2:56 PM,45.0,43.0,93,30.09,1.8,WNW,10.4,26.5,0.31,Rain,Rain,300,2013-04-10 21:56:00
3:03 PM,44.6,42.8,93,30.05,3.0,Variable,6.9,26.5,0.02,Rain,Light Rain,0,2013-04-10 22:03:00
3:23 PM,44.6,42.8,93,30.06,10.0,Variable,5.8,-,0.02,,Overcast,0,2013-04-10 22:23:00
3:56 PM,46.9,41.0,80,30.08,10.0,Variable,5.8,-,0.02,,Mostly Cloudy,0,2013-04-10 22:56:00
4:03 PM,46.4,42.8,87,30.03,10.0,Variable,5.8,18.4,N/A,,Overcast,0,2013-04-10 23:03:00
4:56 PM,50.0,39.0,66,30.04,10.0,West,10.4,26.5,N/A,,Clear,270,2013-04-10 23:56:00
5:56 PM,48.9,33.1,54,30.06,10.0,West,15.0,25.3,N/A,,Clear,280,2013-04-11 00:56:00
6:56 PM,46.0,34.0,63,30.08,10.0,Variable,3.5,-,N/A,,Clear,0,2013-04-11 01:56:00
7:56 PM,43.0,34.0,71,30.09,10.0,Variable,4.6,-,N/A,,Clear,0,2013-04-11 02:56:00
8:56 PM,39.9,33.1,77,30.13,10.0,Variable,5.8,-,N/A,,Clear,0,2013-04-11 03:56:00
9:56 PM,39.0,30.9,73,30.13,10.0,Variable,3.5,-,N/A,,Clear,0,2013-04-11 04:56:00
10:56 PM,37.0,30.0,76,30.14,10.0,Calm,Calm,-,N/A,,Partly Cloudy,0,2013-04-11 05:56:00
11:56 PM,36.0,28.9,76,30.15,10.0,Variable,3.5,-,N/A,,Partly Cloudy,0,2013-04-11 06:56:00